Time,TemperatureF,DewpointF,PressureIn,WindDirection,WindDirectionDegrees,WindSpeedMPH,WindSpeedGustMPH,Humidity,HourlyPrecipIn,Conditions,Clouds,dailyrainin,SoftwareType,DateUTC
2013-02-23 00:13:00,30.9,26.0,29.99,WNW,291,1.0,9.0,81,0.00,,,0.00,weatherlink.com 1.10,2013-02-23 05:13:00,
2013-02-23 00:28:00,30.7,26.0,29.99,WNW,300,0.0,5.0,82,0.00,,,0.00,weatherlink.com 1.10,2013-02-23 05:28:00,
2013-02-23 00:43:00,30.6,26.0,29.99,NW,315,1.0,6.0,83,0.00,,,0.00,weatherlink.com 1.10,2013-02-23 05:43:00,
2013-02-23 00:58:00,30.1,25.0,29.99,WNW,297,1.0,7.0,82,0.00,,,0.00,weatherlink.com 1.10,2013-02-23 05:58:00,
2013-02-23 01:13:00,29.6,25.0,29.99,West,273,0.0,6.0,83,0.00,,,0.00,weatherlink.com 1.10,2013-02-23 06:13:00,
2013-02-23 01:28:00,29.1,24.0,29.99,NW,305,1.0,6.0,82,0.00,,,0.00,weatherlink.com 1.10,2013-02-23 06:28:00,
2013-02-23 01:43:00,28.8,24.0,29.99,NE,46,5.0,7.0,82,0.00,,,0.00,weatherlink.com 1.10,2013-02-23 06:43:00,
2013-02-23 01:58:00,28.6,24.0,29.99,West,262,0.0,3.0,82,0.00,,,0.00,weatherlink.com 1.10,2013-02-23 06:58:00,
2013-02-23 02:13:00,28.2,23.0,29.99,WSW,257,2.0,5.0,80,0.00,,,0.00,weatherlink.com 1.10,2013-02-23 07:13:00,
2013-02-23 02:28:00,28.1,23.0,29.99,WNW,284,2.0,5.0,81,0.00,,,0.00,weatherlink.com 1.10,2013-02-23 07:28:00,
2013-02-23 02:43:00,27.9,23.0,29.99,NW,312,1.0,4.0,80,0.00,,,0.00,weatherlink.com 1.10,2013-02-23 07:43:00,
2013-02-23 02:58:00,27.9,23.0,29.99,WNW,301,0.0,6.0,80,0.00,,,0.00,weatherlink.com 1.10,2013-02-23 07:58:00,
2013-02-23 03:13:00,27.8,23.0,29.98,North,354,0.0,1.0,81,0.00,,,0.00,weatherlink.com 1.10,2013-02-23 08:13:00,
2013-02-23 03:28:00,27.1,22.0,29.99,NNW,338,2.0,2.0,82,0.00,,,0.00,weatherlink.com 1.10,2013-02-23 08:28:00,
2013-02-23 03:43:00,26.8,22.0,29.98,North,355,0.0,0.0,83,0.00,,,0.00,weatherlink.com 1.10,2013-02-23 08:43:00,
2013-02-23 03:58:00,26.7,23.0,29.98,WNW,300,0.0,2.0,84,0.00,,,0.00,weatherlink.com 1.10,2013-02-23 08:58:00,
2013-02-23 04:13:00,26.4,22.0,29.98,WNW,302,0.0,0.0,84,0.00,,,0.00,weatherlink.com 1.10,2013-02-23 09:13:00,
2013-02-23 04:28:00,26.2,23.0,29.98,WNW,302,0.0,1.0,86,0.00,,,0.00,weatherlink.com 1.10,2013-02-23 09:28:00,
2013-02-23 04:43:00,25.9,22.0,29.98,WNW,302,0.0,0.0,86,0.00,,,0.00,weatherlink.com 1.10,2013-02-23 09:43:00,
2013-02-23 04:58:00,26.0,22.0,29.98,WNW,302,0.0,1.0,86,0.00,,,0.00,weatherlink.com 1.10,2013-02-23 09:58:00,
2013-02-23 05:13:00,26.2,23.0,29.98,WNW,302,0.0,2.0,86,0.00,,,0.00,weatherlink.com 1.10,2013-02-23 10:13:00,
2013-02-23 05:28:00,26.5,23.0,29.98,North,359,0.0,0.0,85,0.00,,,0.00,weatherlink.com 1.10,2013-02-23 10:28:00,
2013-02-23 05:43:00,26.5,22.0,29.98,NW,309,0.0,4.0,84,0.00,,,0.00,weatherlink.com 1.10,2013-02-23 10:43:00,
2013-02-23 05:58:00,25.9,22.0,29.99,WNW,293,0.0,3.0,84,0.00,,,0.00,weatherlink.com 1.10,2013-02-23 10:58:00,
2013-02-23 06:13:00,25.3,21.0,29.99,West,271,0.0,2.0,85,0.00,,,0.00,weatherlink.com 1.10,2013-02-23 11:13:00,
2013-02-23 06:28:00,25.0,21.0,29.99,NNW,342,0.0,2.0,86,0.00,,,0.00,weatherlink.com 1.10,2013-02-23 11:28:00,
2013-02-23 06:43:00,24.5,22.0,29.99,NW,305,1.0,3.0,88,0.00,,,0.00,weatherlink.com 1.10,2013-02-23 11:43:00,
2013-02-23 06:58:00,24.3,21.0,29.99,West,262,0.0,3.0,87,0.00,,,0.00,weatherlink.com 1.10,2013-02-23 11:58:00,
2013-02-23 07:13:00,23.9,21.0,30.00,NNW,333,0.0,4.0,87,0.00,,,0.00,weatherlink.com 1.10,2013-02-23 12:13:00,
2013-02-23 07:28:00,23.5,21.0,30.00,NW,305,0.0,3.0,88,0.00,,,0.00,weatherlink.com 1.10,2013-02-23 12:28:00,
2013-02-23 07:44:00,22.9,20.0,30.00,NW,317,0.0,1.0,88,0.00,,,0.00,weatherlink.com 1.10,2013-02-23 12:44:00,
2013-02-23 07:59:00,23.2,21.0,30.00,West,262,0.0,0.0,89,0.00,,,0.00,weatherlink.com 1.10,2013-02-23 12:59:00,
2013-02-23 08:14:00,24.5,22.0,30.00,NW,325,0.0,1.0,89,0.00,,,0.00,weatherlink.com 1.10,2013-02-23 13:14:00,
2013-02-23 08:29:00,25.5,22.0,29.99,WNW,284,0.0,4.0,85,0.00,,,0.00,weatherlink.com 1.10,2013-02-23 13:29:00,
2013-02-23 08:44:00,26.4,21.0,29.99,NNW,339,0.0,3.0,81,0.00,,,0.00,weatherlink.com 1.10,2013-02-23 13:44:00,
2013-02-23 08:59:00,27.2,22.0,29.99,North,349,2.0,4.0,79,0.00,,,0.00,weatherlink.com 1.10,2013-02-23 13:59:00,
2013-02-23 09:14:00,27.9,22.0,29.99,NNW,340,1.0,3.0,79,0.00,,,0.00,weatherlink.com 1.10,2013-02-23 14:14:00,
2013-02-23 09:29:00,28.2,22.0,29.99,NNW,333,1.0,3.0,76,0.00,,,0.00,weatherlink.com 1.10,2013-02-23 14:29:00,
2013-02-23 09:44:00,29.0,22.0,29.98,North,6,1.0,4.0,75,0.00,,,0.00,weatherlink.com 1.10,2013-02-23 14:44:00,
2013-02-23 09:59:00,29.7,22.0,30.00,North,354,2.0,4.0,74,0.00,,,0.00,weatherlink.com 1.10,2013-02-23 14:59:00,
2013-02-23 10:14:00,29.8,22.0,29.99,NNW,328,1.0,5.0,73,0.00,,,0.00,weatherlink.com 1.10,2013-02-23 15:14:00,
2013-02-23 10:29:00,30.8,23.0,29.99,NNW,336,3.0,4.0,72,0.00,,,0.00,weatherlink.com 1.10,2013-02-23 15:29:00,
2013-02-23 10:44:00,30.6,22.0,29.99,NNE,17,2.0,5.0,70,0.00,,,0.00,weatherlink.com 1.10,2013-02-23 15:44:00,
2013-02-23 10:59:00,32.0,24.0,29.99,SW,215,0.0,3.0,71,0.00,,,0.00,weatherlink.com 1.10,2013-02-23 15:59:00,
2013-02-23 11:14:00,32.0,24.0,29.99,WSW,253,0.0,8.0,71,0.00,,,0.00,weatherlink.com 1.10,2013-02-23 16:14:00,
2013-02-23 11:29:00,32.9,24.0,29.99,WNW,302,2.0,8.0,69,0.00,,,0.00,weatherlink.com 1.10,2013-02-23 16:29:00,
2013-02-23 11:44:00,33.7,23.0,29.98,NNE,30,6.0,9.0,64,0.00,,,0.00,weatherlink.com 1.10,2013-02-23 16:44:00,
2013-02-23 11:59:00,34.5,26.0,29.97,SE,137,0.0,6.0,70,0.00,,,0.00,weatherlink.com 1.10,2013-02-23 16:59:00,
2013-02-23 12:14:00,35.0,24.0,29.98,NNW,333,0.0,4.0,65,0.00,,,0.00,weatherlink.com 1.10,2013-02-23 17:14:00,
2013-02-23 12:29:00,35.1,24.0,29.98,North,352,4.0,6.0,63,0.00,,,0.00,weatherlink.com 1.10,2013-02-23 17:29:00,
2013-02-23 12:44:00,36.1,25.0,29.96,WNW,297,2.0,8.0,64,0.00,,,0.00,weatherlink.com 1.10,2013-02-23 17:44:00,
2013-02-23 12:59:00,36.3,24.0,29.95,WNW,299,1.0,5.0,62,0.00,,,0.00,weatherlink.com 1.10,2013-02-23 17:59:00,
2013-02-23 13:14:00,36.8,25.0,29.95,WSW,253,2.0,5.0,62,0.00,,,0.00,weatherlink.com 1.10,2013-02-23 18:14:00,
2013-02-23 13:29:00,37.7,24.0,29.94,NNW,333,0.0,6.0,59,0.00,,,0.00,weatherlink.com 1.10,2013-02-23 18:29:00,
2013-02-23 13:44:00,37.4,24.0,29.95,West,273,1.0,8.0,58,0.01,,,0.01,weatherlink.com 1.10,2013-02-23 18:44:00,
2013-02-23 13:59:00,36.9,23.0,29.94,North,359,2.0,9.0,58,0.01,,,0.01,weatherlink.com 1.10,2013-02-23 18:59:00,
2013-02-23 14:14:00,38.1,25.0,29.94,NW,325,3.0,7.0,60,0.01,,,0.01,weatherlink.com 1.10,2013-02-23 19:14:00,
2013-02-23 14:29:00,38.7,25.0,29.94,West,266,1.0,8.0,58,0.01,,,0.01,weatherlink.com 1.10,2013-02-23 19:29:00,
2013-02-23 14:44:00,38.5,24.0,29.94,NW,312,2.0,10.0,57,0.01,,,0.02,weatherlink.com 1.10,2013-02-23 19:44:00,
2013-02-23 14:59:00,37.9,25.0,29.94,NNE,20,6.0,10.0,60,0.01,,,0.02,weatherlink.com 1.10,2013-02-23 19:59:00,
2013-02-23 15:14:00,38.6,26.0,29.93,WNW,302,1.0,8.0,61,0.01,,,0.02,weatherlink.com 1.10,2013-02-23 20:14:00,
2013-02-23 15:29:00,38.1,24.0,29.93,West,280,2.0,6.0,58,0.01,,,0.02,weatherlink.com 1.10,2013-02-23 20:29:00,
2013-02-23 15:44:00,39.0,25.0,29.93,SW,221,1.0,7.0,58,0.00,,,0.02,weatherlink.com 1.10,2013-02-23 20:44:00,
2013-02-23 15:59:00,39.6,25.0,29.93,WNW,294,1.0,6.0,57,0.00,,,0.02,weatherlink.com 1.10,2013-02-23 20:59:00,
2013-02-23 16:14:00,39.1,25.0,29.93,North,355,3.0,5.0,57,0.00,,,0.02,weatherlink.com 1.10,2013-02-23 21:14:00,
2013-02-23 16:29:00,38.1,25.0,29.93,NW,326,2.0,7.0,60,0.00,,,0.02,weatherlink.com 1.10,2013-02-23 21:29:00,
2013-02-23 16:44:00,38.1,25.0,29.92,West,269,2.0,6.0,59,0.00,,,0.02,weatherlink.com 1.10,2013-02-23 21:44:00,
2013-02-23 17:00:00,37.7,25.0,29.92,West,280,0.0,5.0,60,0.00,,,0.02,weatherlink.com 1.10,2013-02-23 22:00:00,
2013-02-23 17:14:00,36.9,25.0,29.92,WNW,289,1.0,4.0,62,0.00,,,0.02,weatherlink.com 1.10,2013-02-23 22:14:00,
2013-02-23 17:29:00,36.2,25.0,29.92,WNW,296,1.0,4.0,63,0.00,,,0.02,weatherlink.com 1.10,2013-02-23 22:29:00,
2013-02-23 17:44:00,35.7,24.0,29.93,West,270,1.0,4.0,62,0.00,,,0.02,weatherlink.com 1.10,2013-02-23 22:44:00,
2013-02-23 17:59:00,35.3,24.0,29.93,WSW,257,2.0,5.0,64,0.00,,,0.02,weatherlink.com 1.10,2013-02-23 22:59:00,
2013-02-23 18:14:00,34.5,24.0,29.94,WNW,297,1.0,5.0,66,0.00,,,0.02,weatherlink.com 1.10,2013-02-23 23:14:00,
2013-02-23 18:29:00,33.4,24.0,29.94,WNW,290,1.0,4.0,68,0.00,,,0.02,weatherlink.com 1.10,2013-02-23 23:29:00,
2013-02-23 18:44:00,32.4,24.0,29.95,WNW,294,0.0,5.0,70,0.00,,,0.02,weatherlink.com 1.10,2013-02-23 23:44:00,
2013-02-23 18:59:00,31.9,23.0,29.95,WNW,297,0.0,3.0,71,0.00,,,0.02,weatherlink.com 1.10,2013-02-23 23:59:00,
2013-02-23 19:14:00,31.6,24.0,29.95,WNW,289,0.0,3.0,72,0.00,,,0.02,weatherlink.com 1.10,2013-02-24 00:14:00,
2013-02-23 19:29:00,31.2,24.0,29.95,WNW,302,0.0,1.0,74,0.00,,,0.02,weatherlink.com 1.10,2013-02-24 00:29:00,
2013-02-23 19:45:00,30.9,24.0,29.95,NW,319,0.0,5.0,75,0.00,,,0.02,weatherlink.com 1.10,2013-02-24 00:45:00,
2013-02-23 20:00:00,30.8,24.0,29.96,NNW,334,1.0,3.0,76,0.00,,,0.02,weatherlink.com 1.10,2013-02-24 01:00:00,
2013-02-23 20:15:00,30.7,24.0,29.96,NW,308,2.0,3.0,75,0.00,,,0.02,weatherlink.com 1.10,2013-02-24 01:15:00,
2013-02-23 20:30:00,30.5,24.0,29.96,NW,322,1.0,4.0,77,0.00,,,0.02,weatherlink.com 1.10,2013-02-24 01:30:00,
2013-02-23 20:45:00,30.4,24.0,29.96,NW,315,0.0,5.0,76,0.00,,,0.02,weatherlink.com 1.10,2013-02-24 01:45:00,
2013-02-23 21:00:00,30.2,24.0,29.96,WNW,302,0.0,3.0,76,0.00,,,0.02,weatherlink.com 1.10,2013-02-24 02:00:00,
2013-02-23 21:15:00,29.8,24.0,29.97,West,281,3.0,3.0,79,0.00,,,0.02,weatherlink.com 1.10,2013-02-24 02:15:00,
2013-02-23 21:30:00,29.3,23.0,29.97,NW,308,2.0,6.0,77,0.00,,,0.02,weatherlink.com 1.10,2013-02-24 02:30:00,
2013-02-23 21:45:00,28.9,23.0,29.97,WNW,285,1.0,4.0,77,0.00,,,0.02,weatherlink.com 1.10,2013-02-24 02:45:00,
2013-02-23 22:00:00,28.3,22.0,29.97,WNW,300,4.0,5.0,78,0.00,,,0.02,weatherlink.com 1.10,2013-02-24 03:00:00,
2013-02-23 22:15:00,27.8,22.0,29.97,WNW,291,0.0,1.0,78,0.00,,,0.02,weatherlink.com 1.10,2013-02-24 03:15:00,
2013-02-23 22:30:00,27.2,22.0,29.97,WNW,290,0.0,1.0,80,0.00,,,0.02,weatherlink.com 1.10,2013-02-24 03:30:00,
2013-02-23 22:45:00,26.8,22.0,29.97,NNW,338,0.0,1.0,82,0.00,,,0.02,weatherlink.com 1.10,2013-02-24 03:45:00,
2013-02-23 23:00:00,26.2,22.0,29.97,NNW,338,0.0,0.0,83,0.00,,,0.02,weatherlink.com 1.10,2013-02-24 04:00:00,
2013-02-23 23:15:00,26.0,22.0,29.97,North,355,2.0,2.0,84,0.00,,,0.02,weatherlink.com 1.10,2013-02-24 04:15:00,
2013-02-23 23:30:00,25.9,22.0,29.97,NW,309,0.0,2.0,84,0.00,,,0.02,weatherlink.com 1.10,2013-02-24 04:30:00,
2013-02-23 23:45:00,25.5,22.0,29.97,West,276,1.0,1.0,85,0.00,,,0.02,weatherlink.com 1.10,2013-02-24 04:45:00,